Location: Peebles
(55.6412°N, 3.1714°W)
Time: 16:55:30
(UTC+01:00)

Cosmos 1934 Rocket - Pass Details

Date: 29 January 2022
Orbit: 938 x 999 km, 83.0° (Epoch: 25 May)

Event Time Altitude Azimuth Distance (km) Brightness Sun altitude
Rises 06:05:52 0° 152° (SSE) 3,691 7.5 -17.5°
Reaches altitude 10° 06:08:41 10° 142° (SE) 2,739 7.0 -17.1°
Maximum altitude 06:14:01 30° 84° (E) 1,666 6.0 -16.4°
Drops below altitude 10° 06:19:19 10° 25° (NNE) 2,719 6.5 -15.6°
Sets 06:22:05 0° 16° (NNE) 3,661 7.1 -15.2°
